DW9577 Weather Reports


time (UTC)temp
F
wind
direction
speed
knots
gust
knots
rain 1hr
in
rain 24hr
in
rain mn
in
humidity
%
barometer
mb
20260510191524 65 222 19.1 26.9 0.00 0.46 0.47 31 998.5
20260510190004 65 144 19.1 33.0 0.00 0.46 0.47 35 998.0
20260510184504 64 99 16.5 26.1 0.05 0.46 0.47 33 997.3
20260510183004 62 140 4.3 12.2 0.09 0.46 0.47 27 996.3
20260510181504 62 190 13.0 24.3 0.13 0.46 0.47 33 995.7
20260510180003 62 190 13.9 22.6 0.21 0.46 0.47 35 994.9
20260510174503 61 174 17.4 26.1 0.19 0.42 0.42 36 994.3
20260510173003 60 229 13.9 22.6 0.26 0.37 0.37 39 993.7
20260510171504 61 127 18.2 38.2 0.27 0.33 0.33 49 993.5
20260510170003 57 233 3.5 13.9 0.25 0.26 0.25 34 992.2
20260510164524 59 274 22.6 29.5 0.23 0.31 0.23 49 992.0
20260510163003 57 196 11.3 22.6 0.11 0.25 0.11 48 991.6
20260510161504 56 172 18.2 26.9 0.06 0.24 0.06 49 990.7
20260510160003 54 153 7.8 13.0 0.00 0.24 0.00 44 990.2
20260510154504 53 103 3.5 10.4 0.00 0.30 0.00 47 990.0
20260510153004 52 200 9.6 18.2 0.00 0.35 0.00 52 989.4
20260510151504 51 195 10.4 17.4 0.00 0.39 0.00 53 988.9
20260510150003 49 188 8.7 15.6 0.00 0.99 0.00 51 988.3
20260510144503 48 213 9.6 15.6 0.00 0.99 0.00 56 988.1
20260510143024 47 260 10.4 17.4 0.00 0.99 0.00 56 987.4
20260510141504 47 246 12.2 20.9 0.00 0.99 0.00 63 987.6
20260510024504 47 185 13.0 17.4 0.00 1.22 0.39 62 991.0
20260510023004 48 124 9.6 14.8 0.00 1.28 0.39 60 991.2
20260510021504 50 195 7.8 18.2 0.00 1.35 0.39 61 991.3
20260510020004 50 250 5.2 12.2 0.00 1.38 0.39 52 990.9
20260510014525 52 237 13.9 20.9 0.00 1.38 0.39 57 991.1
20260510013025 53 253 14.8 26.1 0.00 1.38 0.39 51 990.8
20260510011504 53 216 13.0 23.5 0.00 1.38 0.39 46 990.5
20260510010004 56 257 17.4 22.6 0.00 1.38 0.39 54 990.8
20260510004526 56 210 13.0 28.7 0.00 1.38 0.39 46 990.4
20260510003005 58 188 14.8 23.5 0.00 1.38 0.39 50 990.6
20260510001505 58 163 16.5 29.5 0.00 1.38 0.39 43 990.1
20260510000005 58 189 13.0 22.6 0.00 1.38 0.39 37 989.7
20260509234505 60 169 14.8 27.8 0.00 1.38 0.39 37 989.6
20260509233005 61 188 11.3 21.7 0.00 1.38 0.39 36 989.4
20260509231505 61 225 8.7 15.6 0.00 1.38 0.39 34 989.3
20260509230005 62 243 16.5 24.3 0.00 1.38 0.39 35 988.9
20260509224505 63 202 14.8 24.3 0.00 1.38 0.39 32 988.6
20260509223004 65 151 20.0 28.7 0.00 1.38 0.39 39 988.8
20260509221505 65 81 17.4 24.3 0.00 1.38 0.39 34 988.4
20260509220004 64 95 13.0 24.3 0.00 1.38 0.39 29 988.1
20260509214504 63 192 0.9 7.0 0.00 1.38 0.39 17 987.3
20260509213005 65 147 19.1 33.9 0.00 1.38 0.39 28 987.1
20260509211504 66 122 15.6 25.2 0.00 1.38 0.39 30 987.1
20260509210005 66 114 10.4 20.0 0.00 1.38 0.39 27 987.0
20260509204504 66 146 5.2 21.7 0.00 1.38 0.39 28 986.8
20260509203004 66 199 22.6 37.4 0.00 1.38 0.39 28 986.1
20260509201504 67 92 23.5 40.0 0.00 1.38 0.39 33 986.0
20260509200004 64 99 2.6 8.7 0.00 1.38 0.39 22 985.7
20260509194504 65 133 11.3 20.0 0.00 1.38 0.39 26 985.4
20260509193004 65 175 10.4 26.1 0.00 1.38 0.39 26 985.2